Flag for U.S.A. Weather past 2 weeks in Tyler, Texas, U.S.A.

Now
63 °F

Sunny.


Feels Like: 63 °F
Forecast: 51 / 77 °F
Wind: No wind

Location: Tyler Pounds Field

Current Time: Apr 20, 2015 at 8:56:09 PM

Latest Report: Apr 20, 2015 at 7:53 PM


Visibility: 10 mi

Pressure: 29.95 "Hg

Humidity: 50%

Dew point: 44 °F

Location of TylerLocation

Historic Weather in Tyler — Graph

°F

Tyler temperature yesterday

Maximum temperature yesterday: 81 °F (at 3:53 PM)
Minimum temperature yesterday: 58 °F (at 3:53 AM)
Average temperature yesterday: 67 °F

Past Weeks' High & Low Weather Summary

 TemperatureHumidityPressure
High86 °F (Apr 9, 1:53 PM)96% (Apr 6, 2:53 AM)30.18 "Hg (Apr 6, 2:53 AM)
Low49 °F (Apr 20, 6:53 AM)28% (Apr 20, 1:53 PM)29.67 "Hg (Apr 19, 3:53 PM)
Average68 °F75%29.93 "Hg
* Reported Apr 5 6:53 PM — Apr 20 6:53 PM, Tyler, Weather by CustomWeather, © 2015

Note: Actual official high and low records may vary slightly from our data, if they occured in-between our weather recording intervals... More about our weather records

Advertising

Tyler weather history for previous 24 hours

 ConditionsComfort  
Time TempWeatherWind HumidityBarometerVisibility
6:53 PM
Mon, Apr 20
68 °FSunny.5 mph35%29.93 "Hg10 mi
5:53 PM70 °FSunny.9 mph29%29.93 "Hg10 mi
4:53 PM70 °FSunny.3 mph28%29.93 "Hg10 mi
3:53 PM70 °FSunny.9 mph29%29.95 "Hg10 mi
2:53 PM70 °FSunny.12 mph28%29.96 "Hg10 mi
1:53 PM70 °FSunny.12 mph28%29.98 "Hg10 mi
12:53 PM67 °FSunny.12 mph29%29.99 "Hg10 mi
11:53 AM65 °FSunny.10 mph32%30.01 "Hg10 mi
10:53 AM63 °FSunny.16 mph40%30.01 "Hg10 mi
9:53 AM61 °FSunny.8 mph46%29.99 "Hg10 mi
8:53 AM57 °FSunny.12 mph58%29.98 "Hg10 mi
7:53 AM52 °FSunny.6 mph69%29.96 "Hg10 mi
6:53 AM49 °FClear.3 mph74%29.96 "Hg10 mi
5:53 AM51 °FClear.7 mph66%29.95 "Hg10 mi
4:53 AM52 °FClear.8 mph66%29.93 "Hg10 mi
3:53 AM54 °FClear.13 mph69%29.91 "Hg10 mi
2:53 AM57 °FClear.12 mph72%29.88 "Hg10 mi
1:53 AM60 °FClear.14 mph69%29.86 "Hg10 mi
12:53 AM62 °FClear.13 mph65%29.86 "Hg10 mi
11:53 PM
Sun, Apr 19
64 °FClear.13 mph61%29.83 "Hg10 mi
10:53 PM66 °FClear.9 mph61%29.80 "Hg10 mi
9:53 PM66 °FClear.6 mph65%29.78 "Hg10 mi
8:53 PM69 °FClear.5 mph59%29.75 "Hg10 mi
Weather by CustomWeather, © 2015

See weather overviewHow to use our weather pages